sat.trackr.live / text

‹ back to catalog

STARLINK-31819

NORAD 59738 · 2024-090J

PAYLOAD ACTIVE UNKNOWN

§ Identity

Operator
Country
US
Launch date
2024-05-13
Launch site
AFETR
Launch vehicle
Mass (kg)
RCS (m²)

Purposes: comms

External: N2YO · Heavens-Above · Gunter

§ Orbital elements

Epoch: 2026-05-25T05:10:44.948928Z

Period
94.27 min
Inclination
43.0031°
Eccentricity
0.0000863
Mean motion
15.27576605 rev/d
Perigee alt
482.5 km
Apogee alt
483.7 km
Semi-major
6,861.2 km
B*
3.7697e-5
RAAN
111.3297°
Arg perigee
273.7833°
Mean anomaly
86.2920°
Rev number
11,514

§ Raw data

STARLINK-318191 59738U 24090J   26145.21579802  .00000775  00000+0  37697-4 0  99932 59738  43.0031 111.3297 0000863 273.7833  86.2920 15.27576605115142

JSON: /api/v1/satellites/59738 · /tle

For live sub-satellite position, see the globe view (requires WebGL).

§ Visibility from observer

Set your observer location to see the next 7 days of passes ≥ 10°. The values pass through the URL so the page stays shareable.

No JS? Fill the form by hand. The geolocation button needs JavaScript.